| time (UTC) | temp F | wind direction | speed MPH | gust MPH | rain 1hr in | rain 24hr in | rain mn in | humidity % | barometer mb |
| 20260508113006 | 57 | 116 | 2.0 | 0.0 | 0.00 | 0.00 | 0.00 | 92 | 1010.5 |
| 20260508111505 | 57 | 117 | 1.0 | 0.0 | 0.00 | 0.00 | 0.00 | 92 | 1010.5 |
| 20260508110006 | 57 | 117 | 0.0 | 0.0 | 0.00 | 0.00 | 0.00 | 92 | 1010.7 |
| 20260508104504 | 57 | 117 | 1.0 | 0.0 | 0.00 | 0.00 | 0.00 | 92 | 1010.5 |
| 20260508103002 | 57 | 117 | 1.0 | 0.0 | 0.00 | 0.00 | 0.00 | 91 | 1010.4 |
| 20260508101600 | 57 | 116 | 2.0 | 0.0 | 0.00 | 0.00 | 0.00 | 90 | 1010.5 |
| 20260508100059 | 58 | 111 | 2.0 | 0.0 | 0.00 | 0.00 | 0.00 | 90 | 1010.2 |
| 20260508094558 | 58 | 92 | 2.0 | 0.0 | 0.00 | 0.00 | 0.00 | 89 | 1010.4 |
| 20260508093057 | 58 | 91 | 1.0 | 0.0 | 0.00 | 0.00 | 0.00 | 89 | 1010.5 |
| 20260508091608 | 59 | 91 | 0.0 | 0.0 | 0.00 | 0.00 | 0.00 | 90 | 1010.5 |
| 20260508090056 | 59 | 91 | 1.0 | 0.0 | 0.00 | 0.00 | 0.00 | 90 | 1010.4 |
| 20260508084608 | 58 | 92 | 1.0 | 0.0 | 0.00 | 0.00 | 0.00 | 90 | 1010.5 |
| 20260508083104 | 59 | 91 | 1.0 | 0.0 | 0.00 | 0.00 | 0.00 | 90 | 1010.6 |
| 20260508081554 | 59 | 92 | 0.0 | 0.0 | 0.00 | 0.00 | 0.00 | 89 | 1011.1 |
| 20260508080106 | 59 | 92 | 0.0 | 0.0 | 0.00 | 0.00 | 0.00 | 89 | 1011.6 |
| 20260508074554 | 59 | 92 | 0.0 | 0.0 | 0.00 | 0.00 | 0.00 | 89 | 1011.7 |
| 20260508073056 | 59 | 92 | 0.0 | 0.0 | 0.00 | 0.00 | 0.00 | 88 | 1011.5 |
| 20260508071549 | 59 | 91 | 0.0 | 0.0 | 0.00 | 0.00 | 0.00 | 88 | 1011.0 |
| 20260508070051 | 59 | 92 | 1.0 | 0.0 | 0.00 | 0.00 | 0.00 | 88 | 1011.0 |
| 20260508064555 | 59 | 91 | 0.0 | 0.0 | 0.00 | 0.00 | 0.00 | 87 | 1011.5 |
| 20260508063045 | 59 | 92 | 0.0 | 0.0 | 0.00 | 0.00 | 0.00 | 86 | 1011.6 |
| 20260508061545 | 60 | 92 | 0.0 | 0.0 | 0.00 | 0.00 | 0.00 | 86 | 1012.0 |
| 20260508060043 | 60 | 92 | 0.0 | 0.0 | 0.00 | 0.00 | 0.00 | 87 | 1012.1 |
| 20260508054547 | 60 | 92 | 0.0 | 0.0 | 0.00 | 0.00 | 0.00 | 87 | 1012.1 |
| 20260508053051 | 60 | 91 | 0.0 | 0.0 | 0.00 | 0.00 | 0.00 | 87 | 1012.1 |
| 20260508051543 | 60 | 91 | 0.0 | 0.0 | 0.00 | 0.00 | 0.00 | 86 | 1012.1 |
| 20260508050050 | 60 | 92 | 0.0 | 0.0 | 0.00 | 0.00 | 0.00 | 86 | 1012.1 |
| 20260508044542 | 60 | 91 | 0.0 | 0.0 | 0.00 | 0.00 | 0.00 | 86 | 1012.1 |
| 20260508043039 | 60 | 91 | 0.0 | 0.0 | 0.00 | 0.00 | 0.00 | 85 | 1012.1 |
| 20260508041538 | 61 | 92 | 0.0 | 0.0 | 0.00 | 0.00 | 0.00 | 85 | 1012.1 |
| 20260508040049 | 61 | 92 | 0.0 | 0.0 | 0.00 | 0.00 | 0.00 | 83 | 1012.1 |
| 20260508034542 | 61 | 92 | 0.0 | 0.0 | 0.00 | 0.00 | 0.00 | 82 | 1012.0 |
| 20260508033037 | 62 | 92 | 0.0 | 0.0 | 0.00 | 0.00 | 0.00 | 82 | 1011.6 |
| 20260508031535 | 62 | 92 | 2.0 | 0.0 | 0.00 | 0.00 | 0.00 | 81 | 1011.3 |
| 20260508030036 | 62 | 91 | 0.0 | 0.0 | 0.00 | 0.00 | 0.00 | 80 | 1011.2 |
| 20260508024538 | 62 | 91 | 1.0 | 0.0 | 0.00 | 0.00 | 0.00 | 81 | 1011.2 |
| 20260508023036 | 62 | 92 | 1.0 | 0.0 | 0.00 | 0.00 | 0.00 | 80 | 1011.3 |
| 20260508021536 | 62 | 92 | 0.0 | 0.0 | 0.00 | 0.00 | 0.00 | 77 | 1011.4 |
| 20260508020034 | 63 | 92 | 0.0 | 0.0 | 0.00 | 0.00 | 0.00 | 76 | 1011.5 |
| 20260508014534 | 63 | 92 | 0.0 | 0.0 | 0.00 | 0.00 | 0.00 | 76 | 1011.1 |
| 20260508013035 | 64 | 92 | 0.0 | 0.0 | 0.00 | 0.00 | 0.00 | 74 | 1011.1 |
| 20260508011533 | 64 | 92 | 0.0 | 0.0 | 0.00 | 0.00 | 0.00 | 74 | 1011.1 |
| 20260508010032 | 65 | 90 | 0.0 | 0.0 | 0.00 | 0.00 | 0.00 | 71 | 1011.2 |
| 20260508004533 | 65 | 90 | 0.0 | 0.0 | 0.00 | 0.00 | 0.00 | 70 | 1011.2 |
| 20260508003031 | 65 | 107 | 0.0 | 0.0 | 0.00 | 0.00 | 0.00 | 70 | 1011.5 |
| 20260508001531 | 65 | 107 | 0.0 | 0.0 | 0.00 | 0.00 | 0.00 | 71 | 1011.3 |
| 20260508000031 | 65 | 107 | 1.0 | 0.0 | 0.00 | 0.00 | 0.00 | 74 | 1011.7 |
| 20260507234542 | 66 | 107 | 0.0 | 0.0 | 0.00 | 0.00 | 0.00 | 74 | 1011.8 |
| 20260507233030 | 65 | 106 | 1.0 | 0.0 | 0.00 | 0.00 | 0.00 | 70 | 1011.5 |
| 20260507231527 | 65 | 107 | 2.0 | 0.0 | 0.00 | 0.00 | 0.00 | 68 | 1011.7 |
| 20260507230029 | 66 | 105 | 2.0 | 0.0 | 0.00 | 0.00 | 0.00 | 65 | 1012.0 |
| 20260507224528 | 66 | 103 | 2.0 | 0.0 | 0.00 | 0.00 | 0.00 | 66 | 1011.8 |
| 20260507223025 | 66 | 103 | 2.0 | 0.0 | 0.00 | 0.00 | 0.00 | 66 | 1012.1 |
| 20260507221531 | 67 | 101 | 2.0 | 0.0 | 0.00 | 0.00 | 0.00 | 64 | 1012.3 |
| 20260507220033 | 67 | 100 | 3.0 | 0.0 | 0.00 | 0.00 | 0.00 | 64 | 1012.2 |
| 20260507214523 | 67 | 96 | 3.0 | 0.0 | 0.00 | 0.00 | 0.00 | 63 | 1012.3 |
| 20260507213028 | 67 | 98 | 4.0 | 0.0 | 0.00 | 0.00 | 0.00 | 62 | 1012.5 |
| 20260507211522 | 67 | 121 | 2.0 | 0.0 | 0.00 | 0.00 | 0.00 | 64 | 1012.7 |
| 20260507210027 | 67 | 104 | 3.0 | 0.0 | 0.00 | 0.00 | 0.00 | 63 | 1013.0 |
| 20260507204521 | 67 | 91 | 3.0 | 0.0 | 0.00 | 0.00 | 0.00 | 61 | 1013.1 |
| 20260507203020 | 67 | 73 | 3.0 | 0.0 | 0.00 | 0.00 | 0.00 | 61 | 1012.7 |
| 20260507201520 | 67 | 74 | 4.0 | 0.0 | 0.00 | 0.00 | 0.00 | 63 | 1012.8 |
| 20260507200019 | 67 | 59 | 4.0 | 0.0 | 0.00 | 0.00 | 0.00 | 61 | 1013.0 |
| 20260507194531 | 67 | 63 | 5.0 | 0.0 | 0.00 | 0.00 | 0.00 | 61 | 1013.2 |
| 20260507193019 | 67 | 68 | 3.0 | 0.0 | 0.00 | 0.00 | 0.00 | 60 | 1013.5 |
| 20260507191519 | 67 | 100 | 2.0 | 0.0 | 0.00 | 0.00 | 0.00 | 60 | 1013.9 |
| 20260507190022 | 67 | 111 | 2.0 | 0.0 | 0.00 | 0.00 | 0.00 | 58 | 1014.4 |
| 20260507184521 | 67 | 66 | 4.0 | 0.0 | 0.00 | 0.00 | 0.00 | 59 | 1014.4 |
| 20260507183020 | 67 | 55 | 3.0 | 0.0 | 0.00 | 0.00 | 0.00 | 59 | 1014.1 |
| 20260507181516 | 68 | 5 | 3.0 | 0.0 | 0.00 | 0.00 | 0.00 | 58 | 1014.0 |
| 20260507180019 | 68 | 38 | 2.0 | 0.0 | 0.00 | 0.00 | 0.00 | 60 | 1014.4 |
| 20260507174517 | 68 | 48 | 4.0 | 0.0 | 0.00 | 0.00 | 0.00 | 61 | 1014.3 |
| 20260507173034 | 69 | 62 | 4.0 | 0.0 | 0.00 | 0.00 | 0.00 | 61 | 1014.6 |
| 20260507171512 | 68 | 26 | 3.0 | 0.0 | 0.00 | 0.00 | 0.00 | 62 | 1014.9 |
| 20260507170016 | 67 | 29 | 3.0 | 0.0 | 0.00 | 0.00 | 0.00 | 65 | 1015.0 |
| 20260507164517 | 66 | 300 | 2.0 | 0.0 | 0.00 | 0.00 | 0.00 | 66 | 1015.5 |
| 20260507163004 | 65 | 60 | 2.0 | 0.0 | 0.00 | 0.00 | 0.00 | 68 | 1015.7 |
| 20260507161501 | 65 | 56 | 2.0 | 0.0 | 0.00 | 0.00 | 0.00 | 69 | 1016.0 |
| 20260507160058 | 64 | 31 | 2.0 | 0.0 | 0.00 | 0.00 | 0.00 | 72 | 1015.7 |
| 20260507154559 | 63 | 55 | 2.0 | 0.0 | 0.00 | 0.00 | 0.00 | 72 | 1015.7 |
| 20260507153057 | 62 | 349 | 2.0 | 0.0 | 0.00 | 0.00 | 0.00 | 76 | 1015.7 |
| 20260507151550 | 61 | 42 | 2.0 | 0.0 | 0.00 | 0.00 | 0.00 | 77 | 1016.1 |
| 20260507150049 | 60 | 51 | 1.0 | 0.0 | 0.00 | 0.00 | 0.00 | 77 | 1016.2 |
| 20260507144544 | 59 | 59 | 2.0 | 0.0 | 0.00 | 0.00 | 0.00 | 81 | 1016.4 |
| 20260507143045 | 58 | 13 | 0.0 | 0.0 | 0.00 | 0.00 | 0.00 | 84 | 1016.4 |
| 20260507141538 | 57 | 360 | 1.0 | 0.0 | 0.00 | 0.00 | 0.00 | 85 | 1016.4 |
| 20260507140042 | 56 | 46 | 2.0 | 0.0 | 0.00 | 0.00 | 0.00 | 87 | 1016.3 |
| 20260507134538 | 56 | 5 | 1.0 | 0.0 | 0.00 | 0.00 | 0.00 | 89 | 1016.3 |
| 20260507133041 | 55 | 5 | 0.0 | 0.0 | 0.00 | 0.00 | 0.00 | 91 | 1016.5 |
| 20260507131539 | 55 | 355 | 0.0 | 0.0 | 0.00 | 0.00 | 0.00 | 92 | 1016.6 |
| 20260507130041 | 54 | 355 | 0.0 | 0.0 | 0.00 | 0.00 | 0.00 | 92 | 1016.7 |
| 20260507124540 | 54 | 355 | 0.0 | 0.0 | 0.00 | 0.00 | 0.00 | 92 | 1016.6 |
| 20260507123035 | 53 | 355 | 0.0 | 0.0 | 0.00 | 0.00 | 0.00 | 92 | 1016.6 |
| 20260507121534 | 52 | 91 | 0.0 | 0.0 | 0.00 | 0.00 | 0.00 | 91 | 1016.7 |
| 20260507120033 | 52 | 80 | 0.0 | 0.0 | 0.00 | 0.00 | 0.00 | 91 | 1016.7 |
| 20260507114554 | 52 | 34 | 0.0 | 0.0 | 0.00 | 0.00 | 0.00 | 91 | 1016.6 |